Weather History for Mount Pleasant, MI

Change the Weather History Date:

Wednesday, August 28, 2013

  Actual Average (KAMN) Record (KAMN)
Temperature  
Mean Temperature 76 °F -  
Max Temperature 84 °F 80 °F 95 °F (1973)
Min Temperature 67 °F 58 °F 37 °F (1986)
Cooling Degree Days 10    
Growing Degree Days 26 (Base 50)    
Moisture  
Dew Point 68 °F    
Average Humidity 81    
Maximum Humidity 96    
Minimum Humidity 49    
Precipitation  
Precipitation 0.00 in - - ()
Sea Level Pressure  
Sea Level Pressure 29.94 in    
Wind  
Wind Speed 3 mph (NNE)    
Max Wind Speed 9 mph    
Max Gust Speed -    
Visibility 7 miles    
Events Fog    
Averages and records for this station are not official NWS values.
T = Trace of Precipitation, MM = Missing Value Source: NWS Daily Summary

Daily Weather History Graph

Daily Weather History Graph

Search for Another Location

Airport:

Trip Planner

Search our weather history database for the weather conditions in past years. The results will help you decide how hot, cold, wet, or windy it might be!

Date:

Astronomy

Aug. 28, 2013 Rise Set
Actual Time 6:58 AM EDT 8:20 PM EDT
Civil Twilight 6:28 AM EDT 8:50 PM EDT
Nautical Twilight 5:52 AM EDT 9:26 PM EDT
Astronomical Twilight 5:14 AM EDT 10:04 PM EDT
Moon 12:01 AM EDT (8/28) 3:03 PM EDT (8/28)
Length of Visible Light 14h 22m
Length of Day
13h 22m
Waning Gibbous, 47% of the Moon is Illuminated
Aug 28
Waning Gibbous
Sep 5
New
Sep 12
First Quarter
Sep 19
Full
Sep 26
Last Quarter

Hourly Weather History & Observations

Time (EDT) Temp. Heat Index Dew Point Humidity Pressure Visibility Wind Dir Wind Speed Gust Speed Precip Events Conditions
12:16 AM 70.9 °F - 69.3 °F 95% 29.83 in 1.5 mi Calm Calm - N/A   Mist
12:36 AM 70.7 °F - 68.9 °F 94% 29.82 in 1.0 mi Calm Calm - 0.01 in   Overcast
1:15 AM 71.1 °F - 69.6 °F 95% 29.83 in 4.0 mi Calm Calm - N/A   Overcast
1:36 AM 70.9 °F - 69.4 °F 95% 29.83 in 5.0 mi NNE 3.5 mph - N/A   Overcast
1:56 AM 70.7 °F - 69.3 °F 95% 29.82 in 7.0 mi Calm Calm - N/A   Overcast
2:15 AM 70.3 °F - 68.9 °F 95% 29.82 in 10.0 mi Calm Calm - N/A   Overcast
2:55 AM 70.3 °F - 68.9 °F 95% 29.83 in 10.0 mi Calm Calm - N/A   Overcast
3:16 AM 70.3 °F - 68.7 °F 95% 29.82 in 7.0 mi Calm Calm - N/A   Overcast
3:35 AM 70.2 °F - 68.7 °F 95% 29.82 in 4.0 mi Calm Calm - N/A   Overcast
3:55 AM 70.7 °F - 69.3 °F 95% 29.84 in 1.0 mi North 3.5 mph - N/A   Overcast
4:16 AM 70.9 °F - 69.6 °F 96% 29.84 in 0.8 mi North 5.8 mph - N/A   Overcast
4:35 AM 71.1 °F - 69.8 °F 96% 29.85 in 0.8 mi North 6.9 mph - N/A   Overcast
4:56 AM 71.1 °F - 69.8 °F 96% 29.85 in 1.2 mi North 4.6 mph - N/A   Overcast
5:15 AM 71.1 °F - 69.6 °F 95% 29.86 in 1.0 mi NNW 4.6 mph - N/A   Overcast
5:35 AM 70.7 °F - 69.3 °F 95% 29.86 in 2.0 mi North 4.6 mph - N/A   Overcast
5:56 AM 70.7 °F - 69.3 °F 95% 29.86 in 3.0 mi North 3.5 mph - N/A   Overcast
6:15 AM 70.7 °F - 69.3 °F 95% 29.86 in 2.0 mi North 8.1 mph - N/A   Overcast
6:35 AM 70.7 °F - 69.1 °F 95% 29.88 in 3.0 mi North 5.8 mph - N/A   Overcast
6:56 AM 70.3 °F - 68.9 °F 95% 29.89 in 2.5 mi North 6.9 mph - N/A   Overcast
7:15 AM 70.3 °F - 68.9 °F 95% 29.89 in 3.0 mi North 6.9 mph - N/A   Overcast
7:35 AM 70.7 °F - 69.1 °F 95% 29.90 in 2.0 mi North 6.9 mph - N/A   Overcast
7:56 AM 70.7 °F - 69.3 °F 95% 29.90 in 2.0 mi North 4.6 mph - N/A   Overcast
8:15 AM 70.9 °F - 69.4 °F 95% 29.91 in 4.0 mi North 4.6 mph - N/A   Overcast
8:36 AM 71.2 °F - 69.8 °F 95% 29.91 in 10.0 mi NNE 5.8 mph - N/A   Overcast
8:56 AM 71.6 °F - 69.8 °F 94% 29.91 in 10.0 mi NNE 8.1 mph - N/A   Overcast
9:15 AM 71.6 °F - 69.4 °F 93% 29.92 in 10.0 mi NE 9.2 mph - N/A   Overcast
9:36 AM 72.1 °F - 70.0 °F 93% 29.92 in 10.0 mi North 4.6 mph - N/A   Overcast
9:56 AM 72.5 °F - 69.8 °F 91% 29.93 in 10.0 mi NNE 8.1 mph - N/A   Overcast
10:15 AM 72.1 °F - 69.4 °F 91% 29.93 in 10.0 mi North 8.1 mph - N/A   Overcast
10:36 AM 72.1 °F - 69.3 °F 91% 29.93 in 10.0 mi North 8.1 mph - N/A   Overcast
10:56 AM 72.0 °F - 69.1 °F 91% 29.94 in 10.0 mi North 8.1 mph - N/A   Overcast
11:15 AM 73.2 °F - 69.3 °F 87% 29.95 in 10.0 mi North 6.9 mph - N/A   Overcast
11:36 AM 73.6 °F - 68.9 °F 85% 29.96 in 10.0 mi North 3.5 mph - N/A   Overcast
11:55 AM 73.9 °F - 68.9 °F 84% 29.96 in 10.0 mi North 6.9 mph - N/A   Overcast
12:15 PM 74.5 °F - 68.7 °F 82% 29.96 in 10.0 mi North 5.8 mph - N/A   Overcast
12:36 PM 76.3 °F - 68.7 °F 77% 29.96 in 10.0 mi North 4.6 mph - N/A   Overcast
12:56 PM 77.4 °F - 68.5 °F 74% 29.96 in 10.0 mi NNE 4.6 mph - N/A   Mostly Cloudy
1:16 PM 77.7 °F - 68.9 °F 74% 29.97 in 10.0 mi North 6.9 mph - N/A   Mostly Cloudy
1:36 PM 79.9 °F - 67.1 °F 65% 29.97 in 10.0 mi NNE 6.9 mph - N/A   Mostly Cloudy
1:55 PM 79.5 °F - 67.8 °F 67% 29.97 in 10.0 mi NE 5.8 mph - N/A   Mostly Cloudy
2:15 PM 80.6 °F 82.9 °F 66.9 °F 63% 29.97 in 10.0 mi ENE 8.1 mph - N/A   Mostly Cloudy
2:36 PM 81.0 °F 83.4 °F 67.1 °F 63% 29.97 in 10.0 mi NE 4.6 mph - N/A   Mostly Cloudy
2:56 PM 83.8 °F 86.7 °F 67.5 °F 58% 29.97 in 10.0 mi North 5.8 mph - N/A   Mostly Cloudy
3:15 PM 82.2 °F 84.6 °F 66.7 °F 59% 29.97 in 10.0 mi NE 6.9 mph - N/A   Mostly Cloudy
3:36 PM 83.5 °F 86.0 °F 66.9 °F 57% 29.97 in 10.0 mi ENE 8.1 mph - N/A   Scattered Clouds
3:56 PM 83.7 °F 85.5 °F 65.7 °F 54% 29.97 in 10.0 mi North 5.8 mph - N/A   Scattered Clouds
4:15 PM 84.4 °F 86.6 °F 65.8 °F 54% 29.97 in 10.0 mi NNE 4.6 mph - N/A   Scattered Clouds
4:36 PM 84.6 °F 86.6 °F 65.5 °F 53% 29.97 in 10.0 mi NE 6.9 mph - N/A   Scattered Clouds
4:56 PM 84.0 °F 86.0 °F 65.5 °F 54% 29.97 in 10.0 mi North 6.9 mph - N/A   Clear
5:15 PM 84.9 °F 86.1 °F 64.0 °F 49% 29.97 in 10.0 mi NE 6.9 mph - N/A   Clear
5:36 PM 84.7 °F 86.3 °F 64.8 °F 51% 29.97 in 10.0 mi NNE 4.6 mph - N/A   Scattered Clouds
5:56 PM 84.2 °F 85.6 °F 64.0 °F 51% 29.97 in 10.0 mi NE 3.5 mph - N/A   Scattered Clouds
6:15 PM 84.2 °F 85.6 °F 64.4 °F 51% 29.98 in 10.0 mi NE 4.6 mph - N/A   Clear
6:36 PM 83.8 °F 85.1 °F 63.7 °F 51% 29.98 in 10.0 mi NNE 3.5 mph - N/A   Clear
6:56 PM 82.6 °F 85.1 °F 66.7 °F 59% 29.98 in 10.0 mi East 4.6 mph - N/A   Clear
7:15 PM 81.7 °F 84.5 °F 68.2 °F 63% 29.98 in 10.0 mi ESE 3.5 mph - N/A   Clear
7:36 PM 80.8 °F 83.5 °F 68.2 °F 65% 29.99 in 10.0 mi ESE 3.5 mph - N/A   Clear
7:56 PM 79.2 °F - 68.9 °F 71% 29.99 in 10.0 mi East 4.6 mph - N/A   Clear
8:16 PM 77.0 °F - 69.1 °F 76% 30.00 in 10.0 mi East 6.9 mph - N/A   Clear
8:36 PM 75.7 °F - 68.4 °F 78% 30.01 in 10.0 mi East 5.8 mph - N/A   Clear
8:56 PM 74.5 °F - 68.2 °F 81% 30.02 in 10.0 mi ESE 3.5 mph - N/A   Clear
9:16 PM 72.7 °F - 67.5 °F 84% 30.02 in 10.0 mi Calm Calm - N/A   Clear
9:36 PM 72.5 °F - 67.1 °F 83% 30.03 in 10.0 mi Calm Calm - N/A   Clear
9:56 PM 71.2 °F - 66.6 °F 85% 30.03 in 10.0 mi Calm Calm - N/A   Clear
10:16 PM 69.3 °F - 66.6 °F 91% 30.03 in 7.0 mi Calm Calm - N/A   Clear
10:36 PM 68.5 °F - 66.6 °F 93% 30.03 in 7.0 mi Calm Calm - N/A   Clear
10:55 PM 68.4 °F - 66.6 °F 94% 30.04 in 5.0 mi Calm Calm - N/A   Clear
11:16 PM 68.0 °F - 66.4 °F 95% 30.05 in 4.0 mi Calm Calm - N/A   Clear
11:36 PM 67.3 °F - 65.7 °F 95% 30.05 in 1.2 mi Calm Calm - N/A   Mist
11:55 PM 67.3 °F - 65.7 °F 95% 30.05 in 0.5 mi Calm Calm - N/A Fog Fog